Change the Weather History Date:

Monday, April 28, 2014

  Actual Average Record
Temperature  
Mean Temperature 60 °F -  
Max Temperature 69 °F 67 °F 96 °F (1989)
Min Temperature 50 °F 41 °F 28 °F (1979)
Degree Days  
Heating Degree Days 5    
Growing Degree Days 10 (Base 50)    
Moisture  
Dew Point 52 °F    
Average Humidity 73    
Maximum Humidity 90    
Minimum Humidity 45    
Precipitation  
Precipitation 0.03 in - - ()
Sea Level Pressure  
Sea Level Pressure 29.25 in    
Wind  
Wind Speed 17 mph (SE)    
Max Wind Speed 28 mph    
Max Gust Speed 34 mph    
Visibility 10 miles    
Events Rain , Thunderstorm    
Averages and records for this station are not official NWS values.
T = Trace of Precipitation, MM = Missing Value Source: NWS Daily Summary

Daily Weather History Graph

Daily Weather History Graph

Search for Another Location

Airport or City:

Trip Planner

Search our weather history database for the weather conditions in past years. The results will help you decide how hot, cold, wet, or windy it might be!

Date:

Astronomy

Apr. 28, 2014 Rise Set
Actual Time 6:25 AM CDT 8:19 PM CDT
Civil Twilight 5:55 AM CDT 8:49 PM CDT
Nautical Twilight 5:18 AM CDT 9:26 PM CDT
Astronomical Twilight 4:39 AM CDT 10:06 PM CDT
Moon 6:04 AM CDT (4/28) 7:58 PM CDT (4/28)
Length of Visible Light 14h 54m
Length of Day
13h 54m
Waning Crescent, 0% of the Moon is Illuminated
Apr 28
Waning Crescent
Apr 29
New
May 6
First Quarter
May 14
Full
May 21
Last Quarter

Hourly Weather History & Observations

Time (CDT) Temp. Dew Point Humidity Pressure Visibility Wind Dir Wind Speed Gust Speed Precip Events Conditions
12:54 AM 62.1 °F 55.9 °F 80% 29.26 in 10.0 mi ESE 27.6 mph 34.5 mph N/A   Mostly Cloudy
1:54 AM 61.0 °F 55.9 °F 83% 29.22 in 10.0 mi ESE 25.3 mph 34.5 mph N/A   Overcast
2:35 AM 61.0 °F 55.9 °F 83% 29.26 in 10.0 mi SE 19.6 mph - N/A   Overcast
3:54 AM 61.0 °F 55.9 °F 83% 29.24 in 10.0 mi ESE 20.7 mph 29.9 mph N/A   Overcast
4:22 AM 61.0 °F 55.9 °F 83% 29.25 in 10.0 mi ESE 17.3 mph - N/A   Overcast
4:49 AM 60.8 °F 55.4 °F 82% 29.23 in 10.0 mi ESE 15.0 mph - N/A   Overcast
4:54 AM 61.0 °F 55.9 °F 83% 29.21 in 10.0 mi ESE 15.0 mph - N/A   Overcast
5:05 AM 61.0 °F 55.9 °F 83% 29.23 in 10.0 mi ESE 13.8 mph - N/A   Overcast
5:15 AM 61.0 °F 55.9 °F 83% 29.23 in 10.0 mi ESE 12.7 mph - N/A   Overcast
5:54 AM 61.0 °F 57.0 °F 87% 29.21 in 10.0 mi ESE 13.8 mph - N/A   Overcast
6:24 AM 61.0 °F 57.0 °F 87% 29.23 in 10.0 mi ESE 12.7 mph - N/A   Overcast
6:54 AM 60.1 °F 57.0 °F 90% 29.21 in 10.0 mi ESE 10.4 mph - N/A   Overcast
7:54 AM 62.1 °F 57.0 °F 84% 29.21 in 10.0 mi ESE 13.8 mph - N/A   Overcast
8:54 AM 62.1 °F 55.9 °F 80% 29.20 in 9.0 mi South 10.4 mph 20.7 mph N/A   Overcast
9:05 AM 61.0 °F 52.0 °F 72% 29.22 in 7.0 mi SW 10.4 mph - N/A   Overcast
9:18 AM 61.0 °F 51.1 °F 70% 29.22 in 7.0 mi SW 8.1 mph - N/A   Overcast
9:54 AM 62.1 °F 51.1 °F 67% 29.19 in 7.0 mi SSW 6.9 mph - N/A   Overcast
10:54 AM 66.0 °F 55.0 °F 68% 29.19 in 8.0 mi SSE 11.5 mph - N/A   Overcast
11:42 AM 68.0 °F 54.0 °F 61% 29.22 in 9.0 mi SSE 19.6 mph 24.2 mph N/A   Overcast
11:54 AM 68.0 °F 54.0 °F 61% 29.19 in 9.0 mi SSE 18.4 mph - N/A   Overcast
12:04 PM 69.1 °F 53.1 °F 57% 29.21 in 9.0 mi SSE 20.7 mph - N/A Thunderstorm Overcast
12:42 PM 66.9 °F 51.1 °F 57% 29.21 in 9.0 mi South 17.3 mph 26.5 mph N/A   Overcast
12:54 PM 68.0 °F 51.1 °F 55% 29.19 in 10.0 mi South 19.6 mph - N/A   Overcast
1:54 PM 68.0 °F 48.0 °F 49% 29.20 in 10.0 mi South 16.1 mph 25.3 mph N/A   Overcast
2:54 PM 68.0 °F 46.0 °F 45% 29.21 in 10.0 mi SSE 16.1 mph - N/A   Scattered Clouds
4:54 PM 64.9 °F 46.0 °F 50% 29.24 in 10.0 mi South 18.4 mph - N/A   Mostly Cloudy
5:54 PM 60.1 °F 44.1 °F 55% 29.27 in 10.0 mi South 17.3 mph - N/A   Mostly Cloudy
6:54 PM 59.0 °F 43.0 °F 55% 29.29 in 10.0 mi South 12.7 mph - N/A   Overcast
7:54 PM 57.0 °F 43.0 °F 59% 29.31 in 10.0 mi South 10.4 mph - N/A   Overcast
8:54 PM 55.0 °F 44.1 °F 67% 29.33 in 10.0 mi South 6.9 mph - 0.00 in   Overcast
9:54 PM 52.0 °F 48.0 °F 86% 29.37 in 10.0 mi ESE 5.8 mph - 0.00 in Rain Light Rain
10:54 PM 51.1 °F 48.0 °F 89% 29.37 in 10.0 mi ENE 6.9 mph - 0.03 in Rain Light Rain
11:35 PM 51.1 °F 48.0 °F 89% 29.39 in 10.0 mi NNE 6.9 mph - 0.00 in Rain Light Rain
11:47 PM 51.1 °F 48.0 °F 89% 29.39 in 10.0 mi North 9.2 mph - 0.00 in Rain Light Rain
11:54 PM 50.0 °F 46.9 °F 89% 29.38 in 9.0 mi NNE 17.3 mph 21.9 mph 0.00 in Rain Light Rain